Wind_Speed
31 31 30 29 27 25 21 20 21 22 22 23 24 23 22 21 21 22 19 18 18 17 17 18 19 18 16 16 16 16 15 13 12 10 10 10 10 11 12 13 14 15 16 17 18 19 19 19 20
31 33 32 32 30 26 24 22 22 22 22 23 24 25 24 23 23 21 21 20 19 18 18 19 20 19 17 17 16 15 14 13 11 10 9 9 10 10 11 12 13 15 16 17 18 18 18 19 19
28 32 34 34 32 27 26 25 23 22 21 22 23 25 25 25 24 24 23 21 20 19 19 20 21 20 18 17 16 15 13 12 11 10 9 10 11 11 11 11 12 13 15 17 19 20 20 21 22
28 29 33 35 32 29 29 27 26 24 22 21 22 24 25 26 26 26 25 23 21 19 19 21 21 21 18 17 17 16 14 12 11 10 10 10 11 12 12 13 14 14 15 16 18 20 22 24 25
31 30 30 30 30 30 31 30 29 27 25 23 22 24 26 26 26 26 25 23 22 20 20 21 21 20 18 16 16 16 15 13 12 10 9 10 10 11 12 13 15 16 18 20 22 23 25 26 26
35 33 31 25 25 30 34 34 31 29 29 27 25 24 26 26 27 26 25 23 21 20 20 20 20 19 18 17 18 17 17 15 13 11 10 9 8 8 10 11 13 14 17 19 21 24 26 28 28
37 36 33 27 25 28 33 36 34 31 31 31 29 27 27 27 27 26 25 23 21 19 18 18 18 19 19 19 19 19 19 18 16 13 12 11 9 8 9 11 12 13 15 17 19 21 23 24 25
37 38 34 28 26 25 30 35 36 35 34 34 32 29 28 28 27 26 25 23 20 19 18 18 18 18 20 20 20 21 21 20 18 16 15 15 13 11 13 15 16 18 20 21 23 25 25 26 26
37 38 32 26 26 26 32 35 36 37 37 36 33 31 29 29 29 27 25 23 21 19 19 20 19 18 19 20 21 22 23 22 21 19 18 18 16 15 16 19 21 24 27 28 29 30 30 30 30
36 35 28 26 27 28 34 38 37 38 39 38 35 33 32 31 31 29 26 24 23 22 21 21 21 20 20 21 22 23 24 24 24 23 21 21 20 19 20 23 26 29 30 32 33 34 34 34 34
36 34 29 29 29 31 34 38 39 38 38 39 38 37 36 34 32 29 27 25 25 25 23 23 24 23 22 22 22 22 23 25 26 26 24 23 23 23 24 25 27 29 31 32 33 32 31 31 33
36 34 33 32 33 34 35 37 38 37 35 38 41 40 37 35 33 30 28 27 28 27 26 26 26 26 25 24 23 21 22 24 26 27 26 25 25 25 25 27 29 31 33 32 30 27 26 28 29
36 36 36 36 36 36 36 36 36 33 33 36 39 42 40 37 35 32 29 26 27 27 27 28 28 29 28 26 24 22 21 22 24 25 26 25 26 26 26 29 30 32 32 30 26 25 26 27 29
35 36 38 39 39 39 38 37 37 32 35 35 36 38 42 41 39 37 32 26 26 27 28 30 30 30 30 28 25 23 21 20 21 22 24 25 26 27 28 29 31 32 31 28 25 26 28 31 33
35 37 38 39 40 40 42 41 37 35 38 37 35 34 38 42 43 42 37 30 27 28 29 30 30 31 30 28 26 23 22 21 21 21 22 23 25 26 28 30 31 32 30 28 27 29 31 35 38
36 38 39 39 42 43 47 45 39 40 41 40 38 35 34 37 41 43 41 35 31 30 30 31 30 31 30 28 26 24 23 23 22 21 22 22 23 24 27 29 31 32 31 30 30 32 35 38 41
37 39 40 41 44 46 49 50 45 43 43 42 41 39 36 37 39 40 39 37 35 33 32 31 31 32 31 28 26 25 25 25 23 22 22 22 22 24 28 31 32 32 31 31 32 35 38 40 41
39 41 42 44 45 48 51 52 50 47 45 43 43 41 38 38 39 40 38 36 36 35 33 32 31 32 30 29 27 27 27 27 24 23 23 23 24 26 30 32 32 30 30 32 35 38 39 40 40
42 44 44 45 46 48 51 53 52 51 48 46 44 42 39 38 39 39 36 35 35 35 34 33 32 32 31 29 28 28 28 27 25 24 24 25 26 28 30 31 30 31 32 35 38 40 41 40 39
43 45 46 46 46 48 50 52 53 53 50 48 47 45 42 41 40 39 36 34 34 35 35 34 34 33 31 30 29 28 27 27 26 26 26 27 28 30 32 32 32 34 36 38 40 42 42 41 40
45 47 48 49 49 49 51 52 52 52 52 50 48 46 45 44 43 41 37 35 34 35 36 36 35 34 33 32 30 28 28 28 28 29 29 30 32 33 35 35 36 37 39 41 42 43 43 43 42
50 51 53 53 53 52 52 54 50 51 52 51 48 47 47 46 45 42 38 36 36 36 37 38 36 35 34 32 31 30 30 30 31 32 33 34 36 37 38 39 40 41 43 43 43 43 43 43 44
54 55 56 56 57 56 54 57 52 49 50 49 48 48 47 47 47 43 39 37 38 38 38 39 38 35 33 33 32 32 31 31 32 33 35 37 39 40 41 42 43 44 44 44 44 43 43 44 47
53 54 56 57 59 60 57 59 56 50 46 47 48 48 48 48 47 44 40 39 39 39 38 39 38 36 34 33 33 33 32 32 34 35 37 39 40 42 43 44 45 44 44 44 44 43 45 48 51
51 51 54 57 60 62 60 61 57 54 47 45 46 48 49 49 47 45 41 40 39 39 38 38 37 36 34 33 33 32 32 33 35 37 38 39 41 42 43 45 45 43 44 44 44 45 48 52 56
47 49 50 53 56 58 60 62 58 56 50 45 44 46 48 48 47 45 42 41 40 39 38 37 36 36 35 34 32 32 32 34 35 37 38 40 41 42 44 45 44 43 44 44 46 49 52 56 60
40 42 41 44 47 50 55 59 58 54 51 45 43 45 46 46 45 43 42 42 41 39 38 36 36 35 35 33 32 32 33 34 35 37 39 40 41 42 43 43 43 44 44 46 49 52 56 59 63
32 33 35 38 41 44 46 49 49 45 43 42 41 43 44 44 43 40 40 41 40 39 38 37 35 34 34 33 32 33 33 35 36 37 39 39 40 41 42 42 43 45 47 49 52 56 59 63 66
31 33 34 37 39 40 40 36 32 32 34 35 39 42 43 41 39 37 39 39 39 38 38 36 35 34 33 33 33 33 34 35 36 37 38 38 39 41 41 43 45 48 51 53 56 59 63 65 69
30 31 32 36 37 36 36 28 23 23 26 31 35 38 39 38 36 36 39 40 39 38 37 36 35 35 34 34 34 34 34 35 35 36 36 38 40 41 42 44 48 51 54 57 60 62 64 68 72
Wind_Direction
244 244 245 245 245 244 244 246 248 250 248 245 243 245 252 259 264 266 269 269 270 270 270 273 276 279 284 289 291 294 295 293 299 307 305 298 293 296 294 286 278 275 274 273 273 274 274 274 274
247 242 243 243 243 244 243 245 248 253 254 250 245 241 243 248 256 262 265 267 270 271 272 274 276 279 282 285 285 288 288 288 295 300 298 292 288 290 295 292 283 276 274 273 272 273 273 273 275
251 245 242 241 242 242 243 245 248 254 256 256 252 245 242 244 248 253 259 265 267 267 271 275 277 279 280 280 279 282 281 281 286 291 294 293 289 285 283 288 289 285 281 275 272 272 273 274 276
252 249 246 242 241 241 242 242 244 248 251 253 254 250 244 243 245 247 249 255 258 261 267 272 274 277 278 277 274 276 274 276 280 284 287 288 290 288 282 278 278 279 281 282 281 279 278 277 277
250 249 249 247 243 242 244 242 242 244 247 249 251 251 248 245 245 247 247 247 250 252 258 265 269 273 276 275 271 271 269 271 275 279 283 285 288 290 288 283 280 279 281 281 282 283 282 281 280
248 249 249 249 247 243 244 244 242 243 245 246 247 248 250 249 248 248 248 246 244 245 250 257 265 269 271 271 268 267 265 266 268 270 274 277 280 287 289 288 290 292 291 290 289 288 286 284 283
248 249 249 246 244 246 247 246 245 243 244 244 245 246 251 252 251 250 248 244 241 241 245 251 260 265 266 266 265 265 263 262 263 264 264 264 265 275 282 285 294 300 300 297 295 294 293 293 293
249 250 250 248 245 247 250 249 246 243 242 244 244 244 248 253 254 252 248 244 240 238 241 248 257 265 267 266 265 265 262 260 262 262 261 261 265 273 280 285 291 296 297 297 297 295 294 293 292
251 251 251 248 242 239 245 248 245 242 241 242 243 243 245 249 251 250 246 242 241 240 241 246 254 264 271 270 267 265 262 260 261 260 260 262 267 273 279 286 292 296 298 297 296 294 293 291 291
254 254 252 244 237 234 239 245 245 242 239 240 241 240 240 242 245 248 247 241 238 240 242 247 253 261 268 271 269 265 263 262 262 259 260 263 267 274 280 288 294 298 300 300 298 296 293 290 290
256 255 248 241 236 233 236 243 247 246 243 240 239 239 237 238 241 244 246 242 238 238 242 246 252 258 263 268 270 267 264 263 263 260 259 264 268 274 281 286 292 296 300 302 303 302 297 292 290
259 255 249 242 238 237 238 243 248 249 247 243 241 241 241 239 241 242 243 242 240 240 242 246 250 255 259 265 270 269 265 262 262 261 259 263 268 274 280 284 290 295 301 303 304 304 301 297 295
262 258 253 247 242 241 242 245 249 252 250 247 244 241 240 240 241 242 242 244 244 245 244 244 246 250 255 261 265 266 263 259 260 262 263 265 268 274 280 284 288 295 299 300 301 303 302 301 300
265 261 256 251 246 244 245 246 251 254 255 252 249 244 240 241 243 243 242 241 245 246 245 244 244 247 251 257 262 263 261 259 260 263 266 267 270 274 279 283 288 293 294 293 294 298 300 301 302
266 263 258 253 249 246 246 245 249 252 254 254 252 248 244 242 244 245 244 242 243 246 247 246 247 249 251 256 261 262 258 255 257 260 265 267 269 274 278 282 287 289 288 286 289 295 298 299 299
269 266 261 255 251 247 246 245 245 248 249 251 251 248 244 244 245 247 247 245 243 244 246 247 248 250 252 256 261 260 255 252 253 257 262 265 268 272 278 282 286 287 285 284 288 292 294 296 298
273 269 265 258 252 249 247 246 243 245 247 247 248 247 244 244 247 249 249 246 245 245 245 245 246 248 251 254 259 258 253 250 250 255 260 263 268 273 278 281 285 286 284 285 287 290 294 297 299
273 270 266 261 255 251 249 247 245 244 245 247 247 247 245 245 247 249 250 247 245 246 246 244 244 246 248 251 256 256 252 249 249 254 260 265 270 275 279 281 283 284 285 287 289 292 295 298 299
274 273 271 268 261 256 253 251 248 245 244 246 247 246 245 245 246 248 249 246 244 244 245 244 244 244 246 249 253 256 253 249 249 254 260 265 270 276 281 282 281 283 286 289 292 295 297 298 298
273 272 272 270 266 261 256 252 250 248 245 245 246 245 242 242 244 246 246 244 241 241 243 244 244 244 245 248 252 256 253 248 249 255 260 265 271 276 281 283 283 286 290 293 295 297 298 298 297
272 272 271 269 266 264 260 254 249 248 247 244 244 244 241 240 241 243 244 244 241 239 241 243 244 244 245 248 252 254 250 249 252 257 261 267 272 277 280 283 286 290 294 296 297 298 298 297 296
272 270 268 267 265 262 261 260 249 246 246 245 243 243 242 240 241 241 241 242 241 239 239 242 243 244 245 248 250 251 251 253 255 258 263 268 272 277 280 283 287 291 294 296 297 297 297 297 297
273 270 268 266 264 263 261 261 257 246 244 245 243 241 241 241 242 241 239 238 239 239 239 240 243 244 245 247 248 250 252 254 257 260 264 268 273 277 280 284 288 292 295 296 297 297 298 298 299
270 267 265 263 262 261 259 258 258 253 244 242 242 241 240 241 242 240 236 235 236 238 238 240 242 245 247 247 248 249 252 256 259 262 266 270 274 277 280 284 289 293 295 296 297 298 299 300 301
267 264 262 260 258 258 257 255 255 255 247 240 238 240 240 240 240 239 235 232 232 235 237 239 242 245 246 246 248 251 254 258 261 264 267 271 274 278 281 286 290 293 294 296 297 299 300 300 300
262 260 259 260 260 258 255 252 250 251 248 239 235 235 237 237 238 235 230 225 226 231 235 238 242 245 245 246 248 252 255 259 262 266 269 272 276 280 284 288 291 293 295 297 298 299 299 299 299
264 261 260 260 259 259 255 251 247 245 245 238 230 230 231 233 233 231 224 221 223 228 233 238 242 245 246 246 249 253 257 261 264 268 271 274 278 282 286 290 292 294 297 299 299 299 298 298 300
268 263 257 256 258 258 258 253 248 244 242 235 225 224 225 226 226 223 218 217 221 227 232 237 243 246 248 248 251 254 259 263 267 271 274 278 283 285 289 292 294 296 299 299 299 299 298 300 301
268 263 259 257 257 258 259 253 247 243 233 224 217 217 218 218 217 215 213 215 221 227 232 238 244 247 249 250 253 256 260 265 270 274 279 283 285 288 290 293 296 299 300 300 299 299 300 302 303
271 266 260 256 258 259 259 245 233 230 219 207 202 206 209 210 208 209 210 215 221 228 234 239 244 248 249 251 254 258 263 268 273 278 282 285 287 289 292 296 298 300 300 300 301 302 303 304 305
Height
5809 5811 5813 5816 5819 5821 5822 5824 5824 5826 5828 5828 5828 5830 5832 5835 5836 5840 5841 5840 5841 5843 5843 5844 5844 5844 5845 5845 5845 5844 5844 5844 5844 5843 5843 5843 5843 5844 5844 5844 5844 5845 5845 5846 5846 5846 5846 5846 5846
5803 5806 5809 5811 5814 5816 5819 5820 5821 5823 5825 5826 5826 5827 5828 5830 5832 5834 5835 5836 5837 5839 5840 5840 5840 5841 5841 5842 5841 5841 5841 5841 5841 5841 5840 5840 5840 5841 5842 5842 5842 5842 5842 5842 5843 5843 5842 5842 5842
5798 5800 5803 5805 5809 5812 5814 5816 5818 5820 5822 5823 5824 5825 5826 5827 5828 5830 5832 5833 5834 5835 5836 5836 5837 5837 5838 5838 5838 5838 5838 5839 5839 5839 5838 5837 5837 5838 5839 5839 5839 5839 5838 5838 5838 5838 5838 5838 5837
5794 5795 5797 5801 5805 5807 5809 5812 5814 5816 5818 5819 5821 5822 5823 5824 5825 5826 5828 5829 5830 5831 5832 5832 5833 5834 5834 5835 5835 5835 5835 5836 5836 5836 5836 5835 5835 5835 5836 5836 5836 5835 5835 5834 5834 5834 5834 5833 5833
5788 5790 5792 5796 5800 5803 5804 5806 5809 5811 5813 5815 5816 5817 5819 5821 5821 5822 5823 5825 5826 5828 5829 5829 5829 5830 5831 5832 5832 5832 5832 5833 5834 5834 5834 5833 5833 5832 5832 5832 5832 5832 5832 5832 5831 5831 5830 5829 5828
5782 5784 5787 5792 5796 5797 5798 5800 5804 5807 5808 5810 5811 5813 5814 5817 5817 5818 5819 5820 5822 5824 5825 5826 5826 5826 5827 5828 5828 5829 5829 5830 5831 5831 5831 5831 5830 5830 5830 5829 5829 5829 5828 5828 5828 5827 5826 5825 5824
5777 5778 5781 5787 5790 5792 5793 5794 5798 5801 5802 5804 5806 5808 5810 5812 5813 5814 5815 5816 5819 5820 5821 5822 5822 5823 5823 5824 5825 5825 5826 5827 5827 5828 5828 5829 5828 5827 5827 5826 5826 5825 5825 5824 5823 5823 5822 5820 5819
5769 5772 5775 5782 5786 5788 5787 5787 5790 5794 5796 5798 5801 5803 5805 5807 5808 5810 5811 5813 5815 5817 5818 5818 5819 5819 5819 5820 5821 5822 5823 5823 5824 5824 5825 5826 5825 5825 5824 5823 5822 5822 5821 5821 5820 5819 5818 5816 5814
5762 5765 5770 5777 5780 5782 5780 5779 5782 5786 5789 5791 5794 5797 5800 5801 5803 5805 5807 5809 5811 5813 5814 5814 5814 5815 5815 5815 5816 5818 5819 5819 5820 5820 5821 5822 5822 5822 5821 5820 5819 5818 5817 5816 5815 5814 5813 5811 5809
5756 5759 5766 5770 5772 5774 5772 5772 5774 5778 5782 5785 5788 5790 5792 5795 5797 5799 5802 5804 5806 5808 5809 5810 5810 5811 5811 5811 5811 5813 5814 5815 5815 5816 5817 5817 5818 5817 5816 5815 5814 5814 5813 5811 5809 5808 5806 5805 5803
5750 5754 5760 5762 5764 5765 5765 5765 5768 5771 5775 5779 5781 5783 5785 5788 5791 5794 5797 5799 5800 5802 5804 5805 5805 5806 5806 5806 5807 5808 5809 5810 5811 5811 5812 5812 5812 5812 5811 5811 5810 5809 5808 5806 5804 5801 5800 5798 5797
5743 5748 5752 5755 5756 5757 5759 5759 5761 5764 5769 5772 5774 5776 5779 5782 5786 5789 5791 5793 5795 5797 5798 5799 5800 5800 5801 5801 5802 5802 5803 5804 5805 5806 5806 5807 5807 5807 5806 5806 5805 5804 5802 5800 5798 5795 5794 5793 5791
5737 5741 5744 5747 5749 5751 5752 5753 5755 5759 5763 5765 5766 5770 5773 5776 5779 5782 5785 5788 5790 5792 5792 5793 5794 5795 5795 5796 5796 5797 5798 5798 5799 5799 5800 5801 5801 5801 5801 5800 5800 5798 5797 5795 5792 5790 5789 5787 5785
5730 5732 5736 5739 5742 5744 5746 5748 5750 5755 5756 5758 5760 5763 5767 5769 5772 5775 5779 5782 5784 5786 5786 5786 5787 5788 5789 5790 5791 5791 5792 5793 5793 5793 5794 5795 5795 5795 5795 5795 5794 5792 5791 5789 5787 5785 5783 5781 5778
5723 5725 5727 5730 5733 5736 5737 5741 5745 5749 5748 5750 5754 5757 5760 5763 5765 5768 5772 5776 5778 5779 5779 5780 5781 5782 5783 5784 5785 5785 5786 5786 5787 5788 5788 5789 5789 5789 5790 5789 5788 5786 5785 5783 5781 5779 5777 5775 5771
5716 5717 5719 5722 5724 5725 5728 5732 5738 5739 5740 5743 5746 5749 5752 5755 5757 5760 5764 5769 5771 5772 5773 5774 5775 5776 5777 5778 5779 5779 5780 5780 5781 5782 5783 5783 5783 5784 5784 5783 5781 5780 5779 5777 5775 5773 5771 5768 5764
5708 5709 5709 5712 5713 5714 5716 5721 5727 5729 5731 5735 5738 5741 5745 5748 5750 5753 5756 5760 5763 5765 5766 5767 5769 5770 5770 5772 5773 5773 5774 5774 5776 5777 5777 5777 5778 5777 5777 5776 5775 5773 5772 5770 5768 5766 5763 5760 5755
5698 5698 5699 5700 5702 5703 5705 5709 5714 5718 5722 5726 5730 5733 5737 5740 5743 5745 5749 5753 5755 5757 5759 5760 5762 5763 5764 5765 5766 5767 5767 5769 5770 5771 5772 5772 5771 5771 5770 5769 5768 5767 5765 5763 5761 5758 5755 5752 5747
5688 5688 5689 5690 5691 5693 5696 5699 5703 5708 5713 5717 5721 5725 5729 5732 5735 5737 5741 5745 5748 5750 5751 5753 5754 5756 5757 5758 5759 5760 5761 5763 5765 5766 5766 5765 5765 5764 5763 5762 5761 5760 5758 5755 5753 5750 5747 5743 5739
5678 5677 5678 5679 5679 5681 5684 5687 5692 5696 5702 5708 5712 5716 5720 5723 5726 5729 5733 5737 5740 5742 5744 5745 5747 5748 5750 5751 5753 5754 5756 5757 5758 5759 5759 5758 5758 5757 5756 5755 5754 5752 5750 5747 5744 5741 5737 5734 5730
5667 5666 5666 5666 5666 5668 5669 5674 5682 5686 5690 5697 5702 5706 5710 5714 5717 5721 5725 5729 5732 5735 5737 5738 5740 5742 5743 5745 5747 5748 5749 5750 5751 5752 5752 5751 5751 5750 5749 5748 5746 5744 5741 5738 5735 5731 5727 5724 5720
5654 5653 5651 5651 5652 5655 5657 5658 5670 5675 5679 5686 5693 5697 5701 5704 5707 5712 5717 5722 5725 5727 5729 5731 5733 5736 5737 5739 5740 5742 5743 5744 5744 5744 5744 5744 5743 5743 5742 5740 5738 5735 5731 5728 5724 5721 5717 5713 5709
5638 5637 5637 5637 5637 5640 5645 5645 5653 5665 5670 5676 5682 5687 5691 5695 5698 5703 5708 5714 5717 5719 5721 5724 5726 5729 5731 5732 5734 5735 5736 5737 5737 5737 5736 5736 5736 5735 5734 5732 5728 5725 5721 5718 5714 5710 5706 5702 5698
5622 5622 5621 5620 5620 5625 5632 5630 5638 5651 5661 5666 5671 5676 5681 5685 5689 5694 5699 5704 5708 5711 5714 5717 5719 5722 5723 5725 5726 5728 5728 5729 5729 5729 5728 5728 5728 5727 5725 5722 5719 5715 5712 5708 5703 5699 5694 5690 5685
5606 5607 5605 5604 5604 5608 5614 5616 5627 5636 5646 5653 5659 5664 5669 5674 5679 5685 5690 5695 5700 5704 5707 5710 5713 5715 5716 5718 5719 5720 5721 5721 5721 5721 5721 5721 5720 5718 5716 5713 5709 5705 5702 5698 5693 5688 5683 5678 5672
5592 5592 5593 5592 5591 5594 5596 5601 5615 5622 5629 5638 5645 5650 5657 5663 5669 5674 5681 5687 5691 5695 5699 5703 5706 5708 5709 5710 5712 5712 5713 5713 5713 5713 5713 5712 5711 5709 5706 5703 5699 5696 5692 5687 5682 5677 5672 5665 5659
5581 5581 5583 5581 5579 5579 5581 5588 5598 5607 5613 5622 5631 5637 5645 5652 5658 5665 5672 5678 5683 5688 5692 5696 5698 5700 5702 5703 5704 5705 5705 5705 5705 5705 5705 5704 5702 5700 5696 5693 5689 5686 5681 5677 5671 5666 5660 5653 5646
5575 5574 5573 5571 5570 5569 5571 5576 5585 5594 5600 5608 5618 5625 5633 5641 5648 5656 5664 5671 5676 5681 5685 5688 5691 5694 5695 5696 5697 5697 5697 5698 5698 5698 5697 5695 5693 5690 5687 5683 5680 5675 5671 5665 5660 5654 5647 5640 5632
5567 5565 5564 5563 5563 5562 5562 5570 5578 5583 5589 5597 5607 5615 5623 5632 5641 5650 5658 5665 5670 5674 5678 5682 5685 5687 5688 5689 5689 5690 5690 5690 5690 5689 5688 5686 5684 5681 5678 5674 5670 5665 5659 5653 5647 5640 5633 5625 5617
5559 5557 5556 5556 5556 5556 5556 5564 5571 5575 5581 5589 5598 5608 5617 5626 5635 5643 5651 5657 5663 5667 5672 5675 5678 5680 5681 5682 5682 5682 5682 5682 5682 5681 5679 5677 5675 5672 5668 5664 5659 5653 5647 5641 5634 5627 5619 5610 5601